Wind_Speed
13 8 8 8 9 11 11 9 4 2 2 4 7 6 4 5 5 7 8 8 6 5 5 6 5 4 6 7 9 12 13 13 13 14 14 14 15 16 16 17 17 18 18 18 20 20 20 19 19 19 18 18 17 17 18 19 19 19 18 17 17 17 16 15 15 15 15 15 16 15 12 11 10 10 9 8 7 6 5 6 7 6 6 5 5 6
11 8 9 11 9 9 10 6 4 4 4 4 5 6 6 5 6 7 6 8 7 4 3 5 6 5 5 7 9 11 13 14 15 16 16 16 16 16 17 17 17 17 17 18 19 20 21 20 19 19 18 18 19 19 20 20 19 19 19 18 18 17 17 17 16 17 16 16 16 14 12 10 9 10 9 7 7 6 5 6 7 6 6 6 5 6
9 9 10 11 7 7 7 6 6 5 5 5 5 6 6 5 7 8 6 7 8 5 2 3 6 5 6 6 10 12 13 13 15 17 18 19 20 18 18 17 17 16 17 19 20 21 21 21 20 19 19 19 19 20 21 20 20 20 19 19 18 18 18 17 17 17 18 17 16 15 13 11 9 10 9 8 8 8 6 7 7 7 7 6 6 6
9 8 11 11 8 8 8 7 7 6 6 6 5 7 6 7 5 5 7 8 5 3 2 2 6 4 6 5 8 12 13 12 13 16 17 18 19 18 18 17 18 18 18 19 20 21 22 21 21 20 19 19 19 19 20 20 20 20 21 21 19 18 18 18 17 18 18 18 18 15 14 13 11 10 11 9 9 8 8 8 8 7 7 7 6 6
7 6 11 12 9 10 9 8 8 7 7 7 6 7 5 7 4 2 6 6 5 4 5 5 7 4 6 6 6 9 12 11 11 13 13 14 15 15 17 18 18 19 20 20 21 21 22 22 22 22 20 19 20 19 20 21 21 22 22 21 20 19 18 18 18 19 19 18 18 16 15 15 13 11 11 10 8 8 8 7 7 8 7 7 7 6
5 7 12 12 10 10 9 8 10 9 8 8 9 8 3 3 4 3 4 4 6 6 7 6 7 5 5 3 2 4 7 7 6 7 9 10 12 13 15 17 18 19 20 21 21 21 22 23 23 22 22 21 20 20 20 20 21 22 23 22 20 19 19 19 19 20 20 19 18 18 16 16 15 13 12 11 9 9 8 7 7 8 8 7 7 6
5 9 12 12 11 11 9 8 10 9 8 7 8 8 5 4 5 5 4 5 5 3 5 4 6 4 7 5 6 3 3 3 4 4 5 8 10 13 14 15 17 19 20 20 21 22 22 23 24 24 24 23 22 21 20 20 20 21 22 22 21 21 20 19 20 21 21 20 19 18 17 16 15 14 13 12 10 9 9 8 8 9 8 8 7 7
7 10 11 11 11 10 8 7 9 9 9 3 6 6 8 8 8 7 6 6 3 1 3 5 5 4 5 6 6 3 5 6 4 2 4 7 10 12 14 15 17 18 19 20 21 22 23 23 24 25 25 25 23 22 21 21 21 21 22 21 21 21 21 20 20 21 22 21 20 19 18 17 15 14 13 13 12 11 11 10 9 9 9 9 8 8
9 9 11 12 11 8 8 8 8 11 10 1 5 4 6 7 9 8 7 6 2 2 5 7 5 5 4 7 5 4 6 6 5 3 1 3 7 12 14 15 17 18 18 18 19 22 23 24 24 24 25 25 24 23 23 22 22 22 22 21 21 21 22 22 21 21 22 22 21 20 19 18 16 14 13 12 13 13 12 11 10 10 9 9 9 9
7 4 7 10 8 5 6 6 6 11 9 2 4 4 4 5 7 7 7 6 3 5 8 7 8 7 3 6 4 5 5 6 6 5 5 5 4 8 13 15 16 18 19 20 20 21 23 24 25 25 24 25 25 24 23 23 23 24 23 22 21 22 22 22 22 21 22 23 23 21 20 18 16 16 15 13 14 14 13 12 11 10 10 10 10 10
8 6 4 4 1 2 1 3 4 9 7 3 5 6 5 5 5 5 5 4 4 7 9 8 8 8 3 4 4 5 6 7 6 5 7 8 7 5 8 13 16 17 19 21 22 22 23 23 23 24 24 24 24 24 24 24 24 24 25 24 23 22 22 22 22 22 22 23 23 22 21 19 17 17 16 15 15 15 14 13 12 11 11 11 11 10
9 7 5 3 4 3 3 5 5 8 6 5 7 7 6 6 5 5 5 4 6 7 9 9 7 7 5 3 6 6 6 7 7 7 8 9 9 8 6 8 13 16 18 19 20 21 21 23 23 24 24 24 24 24 24 24 25 25 26 25 24 23 22 22 22 23 24 24 23 23 22 21 18 18 17 17 17 17 16 15 13 12 12 12 11 11
7 6 6 5 3 2 5 8 7 7 8 8 8 8 7 7 6 7 7 7 8 6 5 8 8 5 2 5 6 8 8 7 8 9 10 11 10 9 7 6 8 14 16 17 19 20 21 22 24 25 25 25 25 26 25 24 24 25 27 26 25 25 24 23 23 23 24 25 24 23 22 21 20 19 18 17 17 17 17 16 15 14 13 13 12 11
6 5 5 5 4 3 3 6 5 7 10 9 8 8 8 7 8 9 8 7 9 6 4 5 7 6 6 5 3 7 9 9 10 11 11 11 11 9 8 6 5 9 15 17 18 20 22 23 24 25 26 26 26 27 27 26 25 26 28 28 26 26 25 23 23 22 23 25 25 24 23 22 21 20 19 18 18 18 18 18 17 15 14 14 13 12
6 6 3 1 1 3 3 2 3 2 9 11 8 8 8 6 7 8 8 9 9 8 7 6 6 5 7 4 2 7 9 10 11 12 13 13 12 11 10 9 7 3 8 14 18 19 21 22 23 25 26 26 27 28 27 27 27 27 29 29 27 26 26 25 24 23 23 23 24 25 25 24 22 21 20 19 19 19 19 19 18 17 16 14 13 13
3 6 5 4 4 4 3 3 6 4 7 8 6 7 6 4 4 4 4 7 9 8 7 7 3 3 7 7 5 6 7 9 12 13 15 16 15 14 13 12 11 10 6 5 12 17 20 21 23 24 26 27 27 28 28 28 28 29 30 29 27 26 26 26 25 24 23 23 23 25 25 25 24 23 22 21 21 20 19 19 19 18 18 16 15 15
2 5 6 3 3 4 4 2 2 3 2 5 7 7 2 3 3 3 1 4 7 8 7 7 6 7 7 7 6 5 5 8 11 14 16 17 17 17 17 16 15 13 12 9 7 9 14 20 23 24 25 26 27 28 29 29 29 30 31 28 27 27 27 26 26 25 24 24 24 24 24 25 26 25 23 22 22 21 20 20 20 20 19 19 18 17
1 4 6 3 4 5 3 1 2 2 3 2 5 5 4 2 4 5 3 5 8 7 6 8 10 9 7 5 5 4 4 7 10 13 15 17 19 19 18 18 17 16 14 12 10 9 8 14 21 23 24 25 26 28 28 30 31 31 30 28 27 27 27 27 26 25 25 25 25 24 24 24 25 25 24 24 23 22 22 21 21 21 20 20 20 18
2 3 7 3 3 5 2 3 4 3 1 3 2 1 2 4 6 5 5 6 9 8 6 9 10 7 3 3 6 4 4 6 8 12 13 16 19 20 20 19 18 17 15 13 10 10 9 12 16 20 23 24 24 26 27 28 30 31 30 29 28 27 27 27 26 26 26 26 26 25 24 24 24 24 25 25 25 24 24 23 22 22 21 20 20 20
3 2 5 4 3 4 3 2 2 4 3 1 2 2 3 4 3 5 6 5 7 9 7 8 9 5 2 5 7 6 6 6 7 9 11 15 19 20 20 21 20 19 17 14 11 9 8 12 15 16 20 22 21 23 24 25 27 29 29 29 29 28 27 27 27 27 27 26 26 26 25 24 23 23 24 25 27 26 25 24 23 22 22 21 21 21
3 3 2 6 5 5 2 2 3 3 1 2 5 5 5 4 2 3 5 4 5 6 7 9 8 5 4 4 6 6 6 7 7 8 10 14 17 19 21 20 20 20 19 16 13 11 9 4 10 13 16 18 19 20 21 23 25 26 26 27 28 29 29 29 29 29 28 27 27 26 26 25 23 22 23 24 26 27 26 25 25 24 24 23 23 22
2 2 1 5 5 3 4 6 5 4 5 3 2 1 1 4 4 5 7 5 4 5 3 6 7 7 4 3 5 5 6 7 9 9 10 13 16 17 20 20 20 21 21 19 16 13 15 12 4 5 10 13 16 19 20 21 22 24 24 24 25 27 28 29 29 30 30 29 28 28 26 26 25 24 23 23 25 26 26 26 26 26 25 25 24 24
3 2 0 4 4 5 7 4 3 3 4 3 3 3 3 3 4 6 6 6 6 5 3 2 6 7 3 4 6 5 6 8 10 10 10 12 15 17 18 19 20 22 24 23 21 17 17 18 14 5 7 10 11 15 18 19 20 20 22 23 23 25 27 27 27 29 30 30 29 29 28 27 26 26 25 24 24 24 25 26 27 27 27 26 26 25
3 2 1 4 5 5 6 3 1 1 3 2 3 4 3 2 2 4 4 3 5 6 3 5 5 7 4 5 6 6 8 9 9 11 11 12 13 15 17 18 19 21 24 28 28 24 19 18 18 13 3 5 9 11 12 15 18 19 19 21 23 24 25 24 24 26 28 30 29 29 29 28 28 27 27 26 25 24 24 25 26 27 28 27 27 27
3 1 1 3 5 5 6 5 4 3 2 1 3 4 4 4 3 4 3 4 5 1 3 7 5 7 6 7 7 6 8 9 10 11 11 12 13 14 15 17 18 20 22 29 33 31 25 21 20 19 15 7 4 11 11 11 14 17 18 19 21 22 23 23 24 24 26 28 29 29 30 29 29 29 29 28 27 26 24 24 25 26 28 28 28 28
2 1 2 3 4 5 4 3 2 2 3 3 3 4 4 5 4 3 2 5 5 1 2 4 4 10 9 8 7 6 7 8 10 11 11 12 13 14 15 15 17 19 20 25 31 34 32 29 25 22 20 16 7 4 11 12 10 11 15 18 19 19 20 23 24 24 25 26 27 28 30 30 30 31 30 30 29 28 26 25 25 25 27 28 29 29
1 1 3 3 3 2 3 4 4 2 3 3 3 4 4 5 5 4 3 4 3 3 3 4 7 12 12 10 8 7 6 7 8 10 11 12 12 12 14 14 15 18 19 22 27 32 33 32 31 28 23 19 15 9 3 11 11 8 11 15 17 18 19 21 24 25 26 26 26 28 30 30 30 31 31 31 30 29 28 27 26 26 26 26 28 29
2 2 2 4 5 6 6 6 5 3 3 3 2 2 3 4 4 3 1 2 2 2 5 6 7 11 11 8 7 6 6 6 8 9 10 11 11 11 12 13 15 17 19 21 24 28 30 31 30 30 28 24 20 16 9 2 10 10 8 10 13 16 17 19 22 25 27 27 27 28 29 28 28 30 31 31 31 30 29 29 28 28 27 27 27 27
2 2 2 2 4 5 5 5 4 3 3 2 1 1 2 2 2 3 4 4 4 1 5 8 7 8 9 7 7 6 4 5 7 8 8 9 10 12 12 14 15 17 18 20 21 23 25 27 29 29 29 28 24 20 16 7 2 7 10 10 9 11 15 18 19 22 25 27 28 28 28 28 28 29 31 31 32 31 31 31 30 30 30 29 28 27
3 2 2 2 4 5 4 3 2 2 0 1 1 1 0 0 1 2 2 3 3 4 7 9 8 8 7 5 6 5 3 5 5 6 7 9 10 11 12 13 15 16 17 18 19 20 21 22 24 26 27 27 27 24 20 13 7 3 6 10 10 8 10 15 19 20 22 26 28 29 29 29 30 30 31 32 31 30 30 31 32 32 32 31 30 29
3 1 2 2 3 4 3 2 1 0 1 2 2 2 3 3 3 3 2 3 3 3 6 8 8 7 5 4 6 5 3 3 4 4 6 8 10 11 11 13 14 15 16 17 18 19 19 20 21 22 24 25 26 25 23 19 14 11 8 6 10 10 8 10 15 19 21 24 27 29 30 30 30 31 32 32 31 30 30 30 32 33 32 32 31 31
2 2 3 4 4 4 4 2 2 2 3 5 5 5 6 5 4 4 3 2 2 3 6 6 5 5 6 5 5 4 2 2 3 4 4 7 9 10 11 12 13 14 14 16 17 18 18 19 20 20 20 21 22 23 23 22 18 14 12 9 7 10 11 10 12 16 19 22 24 27 30 30 30 30 31 32 32 31 31 31 32 33 33 32 32 31
1 2 3 4 4 3 4 2 2 3 6 6 5 6 6 4 3 3 4 2 1 2 3 3 2 5 5 4 3 2 1 2 3 3 4 6 8 9 10 11 12 13 13 14 16 17 18 17 18 19 19 18 18 19 20 21 20 18 15 14 11 7 10 12 14 15 17 19 21 24 27 29 30 30 30 30 31 31 32 33 32 32 32 32 32 32
1 2 1 2 3 3 4 2 4 5 6 2 5 5 3 3 3 4 4 5 3 1 1 3 5 5 4 3 2 1 2 2 1 1 2 5 7 8 9 10 11 12 12 13 14 15 17 17 17 18 18 17 16 16 17 18 19 19 17 15 14 11 6 9 13 15 17 18 19 22 25 26 28 29 29 29 30 30 32 32 32 31 31 31 33 34
2 2 1 1 3 1 3 4 5 5 2 5 6 5 3 1 2 2 2 4 4 2 1 2 4 5 3 0 0 1 1 3 2 2 1 3 6 8 9 9 11 12 13 13 14 15 16 17 18 19 19 18 17 15 15 16 16 18 19 18 17 15 11 7 11 13 16 18 18 19 22 23 25 28 28 28 29 29 30 30 30 30 31 31 32 33
2 2 2 2 2 1 3 5 4 1 4 5 4 4 4 3 4 4 4 6 6 4 3 3 4 5 2 1 1 2 3 5 4 4 3 1 4 7 9 10 11 12 13 13 14 14 15 16 17 19 19 18 17 16 15 15 14 15 18 19 19 20 18 12 9 12 14 17 18 17 18 21 23 25 27 28 29 29 28 28 28 28 29 30 31 31
3 2 2 3 3 2 4 5 2 2 4 5 5 5 4 3 2 2 4 5 7 5 3 3 3 4 3 3 2 4 6 7 6 5 5 0 4 6 9 10 11 12 13 13 14 14 14 14 16 17 18 18 18 17 16 14 13 12 13 14 17 21 23 20 13 9 12 16 19 19 17 18 21 23 25 27 29 30 29 27 27 27 28 30 30 30
4 3 2 3 3 3 4 4 3 4 4 5 6 6 4 2 4 1 3 3 8 7 5 4 5 4 4 3 1 4 5 6 6 5 6 1 5 7 8 9 10 12 13 13 14 14 14 15 15 15 16 17 18 19 17 15 13 12 10 10 13 17 21 22 20 17 12 12 19 21 20 19 19 21 23 24 25 28 29 29 28 28 28 30 30 30
5 3 3 4 4 4 5 5 5 4 1 5 7 7 6 4 3 1 4 4 8 9 7 6 6 5 4 2 1 3 4 6 4 4 5 3 8 10 11 11 11 12 13 14 14 14 16 16 16 15 14 15 18 19 18 17 15 13 11 11 12 14 17 18 21 23 20 14 14 18 22 22 21 20 22 23 24 25 26 27 29 29 29 29 30 30
6 4 4 6 5 5 5 5 4 2 2 7 8 8 8 5 2 5 6 3 7 9 7 5 4 3 2 1 2 4 3 4 4 5 8 11 12 12 13 12 12 13 14 14 14 15 17 17 16 15 15 15 17 18 18 18 17 15 13 11 10 12 15 16 18 22 24 21 16 14 17 21 24 23 20 20 23 25 24 23 25 26 27 28 28 28
5 5 5 6 6 5 6 5 5 2 3 8 11 10 9 6 4 6 3 5 9 9 7 4 2 1 1 3 4 4 3 4 8 12 14 14 14 14 14 15 14 14 14 14 15 17 18 16 15 16 16 16 16 16 17 18 18 17 15 12 11 11 13 15 16 18 22 23 21 17 15 18 24 28 25 21 21 23 23 22 22 22 24 25 25 26
5 5 5 6 6 5 5 4 6 3 4 9 12 12 11 6 3 1 5 9 9 7 5 3 3 2 3 5 5 6 6 7 9 12 14 14 15 15 16 17 17 16 15 15 16 17 17 16 16 17 17 16 15 14 15 17 18 18 17 15 14 13 12 13 14 15 19 23 22 19 17 17 20 25 26 25 24 23 22 22 23 22 22 23 24 26
4 4 5 6 5 5 4 5 6 3 4 11 13 11 9 7 1 7 8 7 6 4 2 3 4 3 3 5 6 7 8 9 10 11 12 14 15 16 17 17 18 18 18 16 16 15 16 17 18 18 17 15 15 15 15 15 16 17 17 17 17 15 12 12 12 13 16 20 21 20 18 18 18 19 20 23 25 25 23 22 23 23 24 25 26 28
5 5 4 4 4 5 5 4 3 2 6 14 12 5 6 8 5 6 4 3 3 3 3 3 4 3 3 5 7 8 9 10 10 10 10 12 14 15 16 17 18 19 19 18 17 16 16 18 19 19 18 16 16 17 17 16 15 16 17 18 18 17 14 12 11 11 12 15 18 20 18 17 19 20 19 19 20 23 23 22 22 24 24 25 27 29
4 4 3 3 3 5 5 3 2 5 5 12 11 3 3 9 7 2 2 2 2 4 4 3 4 4 4 6 7 9 10 10 10 10 11 12 13 14 15 17 17 18 19 19 19 18 17 18 19 20 21 19 17 16 18 18 17 16 17 17 18 19 16 13 11 10 10 12 15 19 20 19 17 20 22 20 17 17 18 19 22 25 25 25 26 28
4 2 2 3 4 5 8 10 7 4 4 9 10 5 6 9 7 4 4 5 5 5 4 4 5 5 5 6 8 9 11 11 12 12 12 12 13 13 14 16 17 18 19 20 20 19 19 19 19 20 22 22 20 17 17 17 17 18 17 16 18 20 20 17 15 12 11 12 14 17 20 23 21 20 21 22 21 18 15 15 19 22 23 25 27 28
7 7 5 5 5 4 5 6 8 9 9 10 11 10 9 8 7 6 6 6 5 5 6 6 6 6 6 7 8 10 12 13 14 14 13 12 13 13 13 15 16 18 19 21 21 21 21 21 21 21 22 23 23 20 18 16 18 21 21 17 16 20 22 21 19 17 14 13 14 16 20 24 24 22 20 20 22 21 18 18 19 19 19 21 25 28
6 9 7 8 8 8 6 4 2 4 7 9 11 12 12 12 10 9 9 8 7 7 7 7 7 7 7 8 8 10 12 14 14 15 15 14 13 13 14 15 16 18 20 21 22 22 22 22 22 23 23 24 24 23 22 19 19 22 22 17 16 20 23 23 22 20 17 16 15 15 17 21 24 25 24 22 22 24 23 21 22 22 20 20 21 23
5 7 5 6 8 10 11 10 9 6 6 10 14 16 15 14 13 12 11 10 9 9 9 8 8 8 8 8 9 10 12 13 14 15 15 16 15 15 15 16 17 19 20 21 22 23 23 23 23 23 25 25 24 23 24 23 21 21 19 16 15 19 23 24 24 22 20 19 18 16 15 16 21 27 28 25 24 24 25 25 25 25 26 25 22 20
4 6 7 7 8 9 9 10 11 9 8 10 13 15 15 15 14 13 12 11 11 11 10 9 9 8 9 9 10 11 12 13 14 15 16 17 17 16 17 18 19 20 20 21 22 23 24 25 24 24 26 26 25 22 22 23 22 21 18 15 14 18 22 24 25 25 22 20 20 21 18 16 18 24 28 27 26 26 27 27 27 27 28 29 29 29
10 11 9 8 11 12 12 12 11 10 12 11 8 8 10 12 13 14 14 13 13 12 10 10 9 9 9 9 10 10 12 13 14 15 17 17 17 18 18 19 20 21 21 21 23 24 25 26 26 26 26 26 25 24 22 21 21 20 19 17 15 16 19 22 24 26 25 22 21 23 23 19 16 19 25 28 29 30 32 32 30 29 28 28 29 33
Wind_Direction
188 192 196 201 200 191 193 206 199 163 201 189 184 186 182 162 123 105 111 136 172 215 211 200 213 197 161 158 164 167 174 183 185 183 187 191 191 189 190 189 184 186 187 185 187 188 189 188 186 187 188 190 191 191 196 202 205 204 202 205 200 190 189 193 192 192 192 187 184 181 181 182 184 182 173 168 164 163 168 158 148 146 137 130 132 128
191 208 199 200 197 179 185 191 173 172 180 199 193 180 194 188 118 106 120 136 159 189 183 196 214 200 182 171 168 176 182 188 190 186 189 194 196 194 193 192 187 185 183 181 183 186 189 188 187 187 188 190 192 195 201 203 205 206 203 206 206 196 191 193 194 194 193 189 185 181 180 179 187 188 175 171 170 169 182 172 156 151 144 135 134 131
193 217 195 187 177 159 169 176 188 198 190 203 204 196 197 170 123 116 127 136 165 192 138 210 230 177 171 176 172 188 197 197 194 191 192 194 194 193 192 193 188 185 183 181 183 185 188 189 188 188 189 191 193 198 203 203 204 206 205 206 206 201 197 195 196 196 195 194 188 183 181 178 183 190 181 180 184 181 184 181 166 157 149 141 136 134
194 210 179 167 164 168 170 173 192 202 204 211 204 207 194 164 164 142 131 136 169 220 107 227 252 166 154 178 178 195 203 202 199 196 196 194 193 191 189 192 190 187 185 183 184 186 188 189 189 190 190 190 191 195 200 201 203 205 207 208 206 203 200 197 199 197 196 197 193 188 185 181 182 190 190 189 192 190 187 183 173 164 156 148 141 137
197 176 158 165 176 184 183 181 198 208 207 212 214 223 195 171 198 87 114 149 182 198 149 203 240 173 156 183 181 192 200 205 201 199 201 195 192 192 191 194 193 191 188 186 187 187 188 189 190 191 190 189 190 193 197 199 202 205 209 210 207 206 202 199 201 200 198 197 195 193 190 190 191 193 197 194 193 197 191 184 178 171 165 160 152 145
188 143 154 172 179 189 196 190 204 218 213 208 212 225 219 173 192 124 124 186 205 184 164 210 232 168 151 159 130 159 183 200 197 199 206 195 192 198 198 197 195 195 193 191 191 189 189 190 191 192 191 191 192 194 197 198 202 206 211 213 209 209 207 202 203 203 203 200 197 197 195 195 197 197 201 195 191 198 189 181 188 181 172 170 166 158
151 151 173 181 177 188 203 203 202 213 227 211 190 201 215 220 216 201 189 214 230 169 138 224 249 175 138 79 25 26 121 146 166 192 214 198 195 203 206 203 199 199 197 194 194 192 192 191 191 193 194 194 195 196 198 198 202 207 212 214 211 211 211 207 204 204 206 205 202 202 199 200 201 201 206 201 190 193 188 182 190 185 177 176 173 171
144 157 179 182 184 191 200 205 188 198 231 205 130 176 206 216 223 218 218 226 253 25 145 207 248 221 144 86 28 24 87 93 111 155 219 210 206 206 209 208 203 203 200 199 198 194 194 194 193 195 197 198 197 197 199 198 201 208 212 213 212 212 213 211 209 208 208 207 207 207 204 204 204 203 209 209 198 194 191 187 187 185 183 183 179 179
159 174 178 178 191 198 203 208 177 191 227 170 98 179 201 211 223 218 224 229 221 254 218 191 206 230 154 105 76 73 76 66 58 34 326 237 224 215 212 211 207 204 201 203 205 200 197 196 196 196 198 200 199 198 200 200 203 209 211 211 212 213 214 214 213 211 211 211 211 212 210 209 205 203 207 210 206 201 195 191 188 186 186 188 187 186
152 171 180 185 197 199 196 198 171 195 218 110 111 187 171 188 216 213 224 223 187 233 232 187 190 219 145 102 96 73 51 29 24 12 1 348 293 233 218 215 212 205 200 202 207 207 202 198 198 198 198 200 199 198 200 202 205 210 212 209 211 213 214 215 214 213 214 214 214 215 216 215 208 204 205 205 207 204 199 195 192 189 188 191 193 192
116 107 141 182 279 344 150 157 184 213 217 141 160 182 167 169 189 203 220 222 203 223 228 201 197 220 199 94 80 61 33 13 6 3 360 350 338 303 235 220 216 212 205 203 205 206 204 201 200 200 200 201 199 198 200 202 205 210 213 210 209 211 214 216 215 214 215 216 218 218 218 219 215 209 207 206 208 208 204 201 197 195 192 193 195 195
136 144 136 87 24 356 207 185 194 215 214 195 193 185 173 166 170 195 195 210 223 222 218 200 192 222 219 106 80 66 40 20 9 5 4 353 346 340 301 240 220 215 212 208 206 205 202 201 202 202 202 202 200 199 199 201 204 209 214 212 209 210 212 216 217 216 216 216 219 221 220 221 219 216 212 211 211 211 210 207 203 200 197 196 197 196
146 142 128 118 83 40 217 196 173 191 203 205 199 185 183 173 174 197 190 199 221 219 202 189 193 212 137 90 80 68 45 27 23 14 8 3 357 350 334 297 238 219 215 211 208 206 204 202 202 202 203 203 201 201 200 201 201 207 214 214 211 211 211 214 217 217 218 218 219 221 222 222 221 220 218 215 214 214 215 214 210 205 201 200 199 198
147 133 137 161 142 34 273 213 174 182 193 200 199 189 193 184 182 196 192 197 213 207 172 170 198 194 126 96 79 77 52 29 31 25 17 13 10 6 359 342 284 228 217 214 210 208 207 204 203 202 203 203 202 202 203 204 202 205 215 216 213 213 213 213 217 219 220 221 221 221 222 223 223 222 221 218 218 218 218 218 217 212 208 205 203 203
163 148 134 86 83 13 333 312 327 238 189 193 203 202 210 209 198 200 196 199 201 189 167 163 197 195 146 139 97 86 66 41 38 36 32 29 25 23 19 14 1 308 228 218 216 213 211 208 205 203 204 204 205 206 206 207 205 207 217 219 214 214 214 214 217 220 222 223 224 224 222 223 224 224 224 222 221 222 221 220 219 217 214 210 208 211
161 117 77 48 39 3 2 10 337 297 189 182 199 215 221 232 230 221 205 203 198 186 175 169 160 88 122 137 111 90 75 52 42 40 41 36 32 31 27 22 13 0 339 256 226 221 217 213 208 206 205 205 207 209 208 208 207 211 220 222 216 214 215 215 217 220 222 224 225 226 224 223 224 224 224 224 224 224 223 222 221 220 218 213 213 216
179 106 89 107 100 36 11 24 354 310 226 175 190 206 179 19 293 254 193 196 207 200 180 161 125 104 126 132 104 88 74 55 39 36 40 37 33 33 29 22 13 2 351 336 299 254 228 216 211 208 208 207 207 210 210 211 214 219 225 225 217 215 216 216 217 218 221 224 225 226 226 224 225 224 223 224 224 225 225 224 222 222 221 218 218 218
251 118 105 118 109 78 39 50 104 348 307 220 192 178 111 47 282 262 219 186 200 202 177 164 149 144 168 157 109 91 59 51 40 35 37 37 35 33 30 22 15 7 355 342 325 303 260 223 215 212 210 210 210 210 213 218 223 226 229 228 221 217 215 215 216 218 220 223 224 225 225 224 225 224 223 224 225 225 226 226 223 222 222 221 220 218
315 136 120 108 102 114 144 213 172 144 326 313 306 144 175 215 209 216 229 198 197 203 174 159 149 137 174 137 97 67 40 41 37 36 34 35 34 31 27 22 16 13 7 358 341 314 277 237 223 216 213 214 214 212 213 219 224 228 232 232 227 222 218 215 215 217 219 221 223 224 224 224 224 224 223 223 226 226 225 225 223 223 223 222 221 219
292 224 139 122 130 156 174 230 200 147 149 225 247 212 229 250 214 207 224 212 209 204 166 156 154 123 79 90 79 57 46 39 34 37 35 36 36 31 28 24 19 16 13 9 2 343 295 246 231 222 217 216 217 215 213 214 217 222 228 232 231 227 225 221 218 218 219 219 222 223 224 224 223 224 224 222 224 225 224 224 224 224 224 222 221 221
262 245 149 130 155 191 177 41 25 32 51 207 215 202 194 228 261 243 228 232 248 225 182 179 172 120 89 90 76 66 61 48 41 42 40 38 36 33 31 27 24 21 18 16 16 14 3 282 227 223 220 217 218 216 213 214 214 215 219 225 228 227 227 227 225 224 222 220 222 223 223 224 222 223 224 223 224 224 223 223 223 224 225 224 222 220
304 252 196 145 159 163 95 60 36 16 358 345 285 256 218 230 230 219 214 212 250 271 240 193 159 106 94 106 82 72 65 58 51 46 47 44 38 35 33 30 29 26 23 23 24 25 28 36 68 201 214 216 218 216 213 213 215 216 215 217 220 221 224 227 227 229 228 223 223 224 223 224 224 223 223 224 224 224 223 222 223 224 225 225 223 221
334 283 153 113 102 97 102 85 32 16 344 345 19 13 325 277 249 233 223 204 210 242 290 195 128 101 105 111 96 85 71 66 59 51 52 49 41 39 37 32 31 29 28 32 36 35 34 38 48 87 196 208 212 213 215 216 216 218 218 216 215 216 220 222 222 228 233 230 227 226 225 225 226 226 225 225 225 224 223 222 223 224 225 226 226 224
314 271 115 109 101 109 134 143 54 345 265 245 58 26 338 320 308 288 311 300 221 199 221 219 142 112 133 123 107 99 81 70 64 57 53 49 43 42 40 34 31 30 32 39 45 44 40 40 43 49 76 206 204 198 207 218 221 222 220 217 217 218 220 219 216 221 232 236 233 230 230 229 228 229 228 228 228 226 224 223 224 225 225 226 227 227
326 278 212 172 162 164 178 184 183 194 220 153 68 34 9 8 333 287 300 282 245 181 278 246 166 115 136 135 115 104 87 71 65 61 54 50 45 41 41 36 32 31 31 40 49 50 47 46 42 37 35 33 200 199 200 210 220 225 224 220 219 220 219 217 215 216 227 238 239 237 236 233 231 232 231 230 230 229 227 225 225 227 227 226 227 228
320 353 308 250 212 196 195 186 177 173 153 120 66 42 25 13 348 300 244 228 224 137 340 276 130 117 134 136 115 98 89 77 67 62 56 53 49 46 44 37 33 33 30 35 46 52 52 52 50 45 38 32 30 218 217 213 212 225 229 227 225 224 220 217 217 216 221 231 236 238 241 239 235 235 234 233 233 231 230 228 225 227 229 228 228 229
274 74 13 345 352 25 70 67 33 23 142 129 79 55 32 15 356 309 247 226 217 164 115 68 107 131 142 141 122 96 82 78 69 60 54 50 47 48 46 39 37 37 32 31 42 51 54 54 54 54 49 38 30 25 243 216 211 219 230 231 230 229 225 220 219 220 225 230 232 236 243 243 239 239 238 236 235 232 231 230 228 228 230 231 230 229
212 141 65 42 50 54 64 69 50 38 83 95 83 64 36 21 1 335 338 42 347 217 150 105 119 139 139 135 122 96 75 75 67 57 53 45 41 43 42 40 39 38 34 30 34 43 49 52 54 54 52 48 40 33 31 211 209 211 220 228 232 233 231 225 221 223 230 237 237 239 245 245 242 242 241 240 239 236 234 233 233 232 234 236 234 232
260 135 102 95 95 81 70 70 61 58 79 91 64 51 44 27 17 35 61 52 2 346 125 125 136 137 131 129 118 95 70 73 66 55 53 46 39 40 38 38 37 34 33 29 26 29 36 45 52 53 51 50 49 44 37 30 208 210 211 208 212 229 234 232 228 225 228 238 246 248 248 248 246 244 243 242 241 240 238 237 238 238 239 240 238 236
305 100 121 149 128 105 86 86 77 49 84 194 196 162 159 15 67 80 79 75 62 71 105 125 133 121 111 111 110 103 78 68 63 52 51 44 36 35 36 36 34 31 30 27 24 22 22 30 45 53 52 49 47 45 41 34 25 335 250 219 208 217 229 231 234 233 228 235 249 255 252 251 251 248 246 245 244 242 241 240 241 242 242 243 242 240
302 121 144 204 172 138 122 129 147 232 256 225 209 199 195 187 176 177 165 139 136 119 118 132 137 127 120 120 122 124 116 87 62 40 41 37 30 31 33 33 31 28 26 23 21 20 18 19 27 41 50 50 46 42 39 37 32 15 345 278 234 228 232 234 237 239 236 236 246 256 257 255 254 253 250 249 247 246 244 243 243 244 244 245 245 244
288 150 162 226 223 158 141 179 215 223 239 234 220 201 192 189 184 170 158 172 190 150 144 163 167 140 133 140 143 143 145 118 75 43 28 24 23 26 29 29 28 25 22 21 19 17 18 16 14 19 31 42 46 44 39 37 35 28 14 349 292 246 240 247 243 238 240 242 243 252 259 259 257 256 254 252 251 250 249 247 247 247 246 246 246 246
262 177 169 220 239 152 135 202 256 232 230 227 196 175 179 177 165 156 149 157 189 175 178 191 132 113 124 146 160 147 125 82 66 51 15 9 12 17 24 24 24 23 20 18 17 15 14 13 9 8 11 22 36 43 41 37 34 32 26 10 350 303 248 244 244 236 236 243 244 248 256 260 258 257 256 256 255 254 253 253 252 250 249 248 248 249
188 239 200 234 247 153 134 199 242 228 222 167 104 120 151 163 176 181 160 149 164 221 325 41 80 106 134 167 169 91 37 5 28 81 28 9 359 2 14 17 15 17 17 15 14 11 9 8 6 6 5 9 20 31 41 43 39 34 30 21 6 350 300 250 247 243 237 239 244 246 250 256 258 257 257 257 257 256 256 256 255 254 253 252 253 252
186 227 199 239 254 170 136 198 224 221 168 103 104 120 124 132 189 191 146 155 181 199 147 119 124 123 123 160 117 36 346 319 297 232 245 6 358 355 2 7 8 8 8 9 8 6 5 3 2 2 2 4 6 12 28 42 42 37 33 27 16 4 348 296 261 254 243 237 240 246 247 249 254 257 257 257 257 257 257 257 258 257 256 255 255 254
237 227 197 221 242 203 184 207 215 141 110 118 133 146 151 175 193 204 204 189 187 184 173 171 149 135 150 249 299 323 307 302 284 238 228 344 13 6 359 359 0 360 360 0 360 0 360 359 358 357 356 357 356 357 10 25 32 38 39 33 27 19 8 349 298 267 255 242 236 240 244 245 249 254 256 257 257 257 256 256 257 257 258 257 254 252
258 253 226 220 220 233 237 223 192 127 161 175 170 163 176 191 176 224 235 180 159 158 173 177 152 151 185 221 273 307 304 296 272 220 195 126 27 18 1 354 352 351 352 352 350 352 353 351 352 353 352 351 347 345 353 5 15 28 35 32 29 25 16 8 352 310 274 249 235 234 237 239 242 247 252 255 256 257 256 254 255 255 256 257 254 249
236 254 262 238 211 229 260 246 216 225 214 174 146 140 139 99 80 24 284 188 152 154 171 173 159 162 181 186 234 295 294 283 262 191 168 208 357 7 354 345 344 343 343 343 343 343 343 342 344 345 348 348 341 337 340 347 359 12 13 8 14 17 13 8 5 355 324 267 239 233 231 230 233 239 244 246 248 251 253 253 254 255 255 256 255 251
215 233 250 251 230 218 245 246 229 234 191 120 127 133 133 120 109 197 257 209 154 154 169 172 158 158 169 167 235 282 276 260 242 126 106 347 335 342 335 330 331 330 331 333 334 334 334 336 338 339 342 341 338 338 337 336 343 354 357 357 2 4 3 3 3 1 351 321 271 245 233 227 225 227 234 239 240 242 247 250 251 253 254 255 255 253
206 210 214 235 238 219 231 245 242 246 106 120 136 141 137 133 168 234 244 189 144 150 158 162 156 153 168 225 269 267 267 271 292 355 1 336 324 321 317 316 318 318 320 322 322 322 325 329 331 332 334 334 334 339 339 333 332 336 341 353 360 355 354 357 357 356 354 345 322 287 254 237 229 225 228 237 242 240 240 242 245 247 248 249 250 249
209 213 216 233 237 220 223 239 248 251 117 136 153 151 143 150 216 246 236 119 135 149 147 153 179 205 269 290 288 276 290 308 307 315 320 315 310 308 305 305 307 307 308 310 310 313 317 321 321 321 325 328 330 335 337 332 330 328 328 337 348 344 342 348 349 347 348 349 339 318 292 262 244 238 239 247 251 246 241 240 241 242 242 243 244 243
209 210 217 233 241 234 230 240 249 249 128 147 159 153 156 187 235 203 115 114 132 145 144 178 242 285 280 284 293 289 296 304 300 301 304 302 302 302 300 301 302 301 301 302 303 308 311 311 310 312 317 321 322 325 328 328 326 325 324 325 331 333 331 337 343 340 339 345 343 327 309 289 264 249 247 253 258 256 250 247 247 247 244 244 245 244
210 211 219 222 226 237 243 235 245 274 122 150 158 155 180 212 113 99 124 131 135 147 168 222 245 264 271 281 292 291 294 299 297 297 300 300 301 301 299 300 299 298 300 299 297 302 305 302 302 306 309 312 314 314 317 320 319 320 323 321 319 321 323 326 333 336 333 338 342 334 315 300 287 269 252 247 250 253 252 249 247 248 248 249 252 252
209 218 241 226 200 216 236 220 210 45 120 160 170 175 201 197 132 103 137 155 148 186 233 255 249 250 264 279 288 291 293 296 297 298 299 297 299 300 299 298 298 296 298 297 295 296 297 297 297 297 298 301 305 306 307 309 307 309 316 316 312 312 314 315 320 330 330 330 337 338 326 308 296 287 273 255 244 245 248 248 248 250 251 252 254 256
203 218 285 291 220 229 269 282 76 70 124 179 199 236 181 174 162 147 245 262 249 241 251 259 254 256 269 279 287 291 293 296 300 301 299 296 296 298 297 297 297 296 296 296 296 294 294 294 293 291 290 292 296 300 301 301 300 301 306 310 309 307 308 310 312 321 325 321 324 332 333 325 310 294 286 276 259 248 247 249 250 250 251 252 253 254
218 230 301 289 251 253 268 262 244 228 199 196 205 203 159 165 175 194 228 245 251 250 248 248 254 263 273 282 290 291 293 300 304 302 301 299 295 294 295 295 296 296 296 296 297 295 293 291 291 289 287 285 286 292 296 295 293 294 297 304 307 304 304 305 306 309 313 311 308 313 320 323 319 306 294 287 278 264 247 240 246 253 256 255 254 253
214 211 219 242 248 249 250 237 229 236 231 213 207 203 187 185 191 198 217 233 239 238 236 238 249 262 270 276 282 288 294 300 303 302 303 301 297 294 295 295 295 296 295 295 295 296 294 292 290 288 286 284 283 284 287 288 288 289 291 295 301 301 300 300 301 300 297 300 306 306 304 307 313 314 311 302 292 281 263 240 238 252 261 258 256 256
193 185 210 239 238 239 252 249 215 229 230 222 221 219 214 215 215 212 217 224 225 225 225 228 242 256 265 272 276 284 292 296 299 302 302 300 297 295 293 294 294 294 294 294 293 293 292 290 288 287 286 284 282 281 281 282 284 286 287 287 291 296 297 297 298 297 292 292 302 306 300 298 301 305 312 315 308 299 289 268 249 245 247 249 256 263
128 164 216 250 241 241 252 250 234 224 224 227 229 230 231 233 230 223 219 219 218 219 220 228 241 250 259 270 277 284 289 292 295 298 298 296 296 294 292 293 294 292 292 292 291 290 288 287 286 285 283 283 282 281 279 277 278 282 282 280 283 289 293 295 296 295 292 291 294 296 297 296 293 293 300 311 315 311 306 295 279 263 252 247 247 252
167 229 252 259 252 247 250 252 250 250 253 247 237 230 231 236 235 227 220 217 217 217 221 230 240 248 257 268 277 282 285 289 291 293 294 294 293 293 293 294 293 292 291 291 290 289 287 285 284 282 281 280 280 279 277 275 275 277 275 273 276 282 286 290 293 294 293 289 288 288 289 290 289 286 290 300 310 315 314 307 297 284 272 263 255 250
215 241 249 249 256 260 266 278 284 273 265 269 268 243 231 232 230 224 219 217 216 215 220 230 238 246 256 265 274 279 283 287 289 291 291 292 293 294 295 294 292 292 292 290 288 287 286 284 282 280 279 278 278 277 275 272 270 270 270 269 271 276 281 286 289 292 293 291 286 284 285 287 289 287 286 290 299 308 313 312 307 297 286 278 270 261
Height
1509 1510 1511 1509 1505 1504 1503 1501 1501 1503 1503 1503 1503 1504 1504 1505 1509 1510 1510 1509 1509 1516 1516 1513 1515 1513 1513 1515 1515 1519 1522 1523 1526 1528 1531 1533 1535 1536 1538 1540 1542 1545 1548 1551 1553 1556 1559 1561 1564 1566 1568 1570 1572 1573 1575 1576 1578 1579 1581 1582 1584 1586 1588 1589 1590 1591 1593 1594 1595 1597 1599 1600 1601 1601 1602 1603 1604 1605 1605 1605 1605 1606 1606 1607 1607 1608
1509 1509 1506 1503 1499 1500 1501 1502 1504 1506 1506 1506 1504 1506 1506 1505 1509 1510 1510 1509 1509 1517 1517 1511 1513 1514 1511 1511 1513 1516 1519 1521 1523 1525 1529 1531 1534 1536 1537 1539 1542 1544 1547 1550 1552 1555 1558 1560 1562 1564 1566 1568 1570 1572 1573 1575 1577 1579 1580 1582 1583 1585 1587 1588 1589 1591 1592 1594 1595 1597 1598 1600 1601 1601 1602 1603 1604 1605 1605 1605 1605 1606 1607 1607 1607 1608
1511 1506 1500 1498 1497 1500 1503 1504 1506 1507 1507 1507 1504 1506 1507 1504 1508 1511 1509 1508 1509 1516 1518 1514 1513 1512 1508 1507 1510 1513 1515 1517 1520 1522 1526 1529 1531 1534 1536 1538 1541 1543 1546 1548 1551 1553 1556 1559 1561 1563 1565 1567 1569 1570 1572 1574 1576 1578 1580 1581 1582 1584 1586 1588 1589 1590 1592 1593 1595 1596 1598 1600 1601 1601 1602 1603 1604 1604 1605 1605 1606 1606 1607 1607 1608 1608
1510 1502 1496 1497 1500 1503 1506 1506 1507 1508 1507 1506 1504 1507 1508 1505 1508 1513 1512 1510 1509 1510 1515 1518 1513 1508 1507 1507 1508 1510 1512 1513 1517 1520 1524 1526 1529 1532 1535 1537 1539 1541 1544 1546 1549 1552 1554 1557 1559 1562 1563 1565 1568 1570 1571 1573 1575 1577 1578 1580 1581 1583 1585 1587 1588 1590 1591 1593 1594 1596 1597 1598 1600 1601 1602 1602 1603 1604 1605 1605 1605 1606 1607 1607 1608 1608
1502 1496 1494 1499 1502 1504 1507 1508 1508 1509 1508 1505 1504 1505 1507 1506 1506 1510 1511 1510 1509 1508 1511 1517 1516 1509 1508 1510 1509 1507 1509 1512 1514 1518 1521 1524 1528 1532 1534 1536 1538 1539 1542 1544 1547 1550 1552 1555 1557 1560 1562 1564 1566 1568 1570 1571 1574 1575 1577 1579 1580 1582 1584 1586 1588 1589 1591 1592 1594 1595 1596 1598 1599 1600 1601 1602 1603 1603 1604 1605 1606 1606 1607 1607 1608 1608
1498 1496 1498 1502 1504 1504 1506 1508 1507 1507 1507 1507 1505 1503 1505 1507 1507 1509 1511 1511 1512 1514 1510 1512 1522 1519 1509 1510 1511 1507 1509 1513 1514 1517 1520 1524 1528 1531 1532 1534 1536 1538 1540 1543 1545 1548 1550 1553 1556 1558 1560 1562 1564 1566 1568 1570 1572 1574 1576 1577 1579 1581 1583 1585 1587 1588 1590 1591 1593 1594 1595 1597 1598 1599 1601 1601 1603 1604 1605 1606 1606 1606 1607 1607 1608 1608
1496 1499 1499 1502 1504 1505 1507 1507 1505 1505 1507 1508 1504 1501 1505 1508 1509 1509 1511 1512 1513 1514 1508 1507 1520 1523 1515 1519 1519 1513 1514 1516 1516 1518 1519 1522 1526 1529 1531 1533 1535 1537 1539 1541 1543 1546 1549 1551 1553 1556 1558 1560 1563 1565 1567 1569 1571 1572 1574 1576 1578 1580 1582 1584 1586 1587 1589 1590 1592 1593 1595 1596 1598 1599 1600 1601 1603 1604 1605 1606 1606 1606 1607 1607 1608 1609
1496 1501 1501 1502 1504 1506 1508 1507 1503 1504 1508 1506 1500 1501 1506 1508 1510 1510 1510 1512 1509 1509 1510 1507 1511 1517 1523 1530 1524 1517 1520 1521 1520 1520 1519 1521 1524 1527 1529 1531 1533 1536 1538 1540 1542 1544 1546 1549 1551 1553 1556 1558 1561 1563 1565 1567 1569 1570 1572 1574 1576 1579 1580 1582 1584 1586 1588 1589 1591 1592 1594 1595 1597 1599 1600 1601 1602 1603 1604 1605 1606 1606 1607 1607 1608 1609
1496 1501 1501 1502 1505 1506 1505 1502 1500 1504 1507 1503 1499 1502 1505 1506 1508 1507 1509 1511 1508 1513 1517 1509 1508 1517 1525 1528 1521 1520 1525 1526 1525 1522 1520 1520 1522 1524 1527 1529 1531 1534 1537 1539 1541 1543 1544 1547 1549 1551 1554 1556 1559 1562 1563 1565 1567 1568 1570 1573 1575 1577 1579 1580 1582 1585 1586 1588 1590 1591 1593 1594 1596 1598 1599 1600 1601 1603 1603 1604 1605 1606 1606 1607 1608 1608
1497 1500 1499 1500 1503 1503 1501 1498 1499 1504 1505 1501 1501 1504 1504 1506 1507 1507 1510 1510 1512 1523 1521 1509 1507 1518 1529 1528 1522 1526 1530 1529 1527 1522 1520 1521 1521 1523 1524 1527 1530 1531 1534 1536 1539 1542 1543 1545 1547 1550 1552 1554 1557 1559 1561 1563 1565 1567 1568 1571 1573 1574 1577 1579 1581 1583 1585 1587 1589 1590 1592 1593 1595 1597 1598 1600 1601 1602 1603 1604 1605 1605 1606 1607 1608 1608
1498 1500 1499 1500 1503 1502 1500 1500 1501 1503 1502 1501 1504 1506 1507 1509 1508 1509 1510 1508 1520 1530 1518 1505 1504 1511 1530 1536 1527 1530 1533 1529 1527 1524 1523 1523 1522 1523 1523 1524 1527 1529 1532 1533 1536 1539 1541 1543 1545 1548 1550 1552 1555 1558 1559 1561 1563 1565 1567 1568 1571 1573 1575 1577 1579 1581 1583 1585 1587 1589 1591 1592 1594 1596 1597 1598 1600 1601 1602 1603 1604 1605 1606 1607 1607 1608
1499 1501 1502 1503 1505 1503 1503 1504 1505 1503 1501 1503 1505 1507 1512 1515 1515 1517 1516 1517 1530 1531 1509 1502 1503 1507 1527 1537 1528 1529 1530 1526 1526 1526 1524 1524 1523 1523 1523 1523 1525 1526 1529 1531 1534 1537 1538 1541 1543 1545 1548 1550 1553 1556 1557 1559 1561 1563 1565 1566 1569 1571 1573 1575 1577 1580 1582 1584 1586 1587 1589 1591 1593 1595 1596 1597 1599 1600 1601 1602 1604 1604 1605 1606 1607 1608
1500 1502 1502 1505 1506 1504 1505 1505 1505 1506 1504 1505 1504 1506 1516 1523 1527 1530 1528 1527 1530 1521 1503 1500 1505 1511 1526 1531 1526 1528 1529 1525 1526 1525 1525 1524 1524 1524 1523 1523 1523 1524 1527 1529 1532 1535 1536 1538 1540 1542 1546 1548 1550 1553 1555 1557 1559 1561 1563 1564 1567 1569 1571 1573 1575 1578 1580 1582 1584 1586 1588 1590 1592 1593 1595 1596 1598 1599 1600 1602 1603 1604 1604 1605 1606 1607
1505 1506 1503 1505 1506 1504 1505 1503 1505 1507 1505 1505 1504 1506 1515 1522 1533 1539 1532 1528 1525 1514 1504 1502 1507 1518 1530 1530 1524 1526 1528 1526 1525 1526 1526 1525 1524 1524 1523 1523 1523 1523 1525 1527 1529 1532 1533 1534 1537 1539 1542 1545 1547 1550 1552 1554 1557 1558 1560 1562 1565 1567 1569 1572 1574 1576 1578 1580 1582 1584 1586 1588 1590 1592 1594 1595 1597 1598 1599 1600 1602 1603 1604 1605 1606 1606
1507 1513 1507 1504 1506 1504 1504 1504 1503 1501 1500 1502 1498 1500 1506 1507 1518 1527 1522 1521 1520 1511 1508 1510 1512 1518 1527 1531 1524 1522 1527 1527 1527 1528 1527 1527 1525 1525 1524 1523 1523 1522 1523 1525 1526 1529 1530 1532 1535 1537 1539 1542 1544 1547 1549 1552 1554 1556 1557 1559 1562 1565 1567 1570 1572 1574 1576 1578 1580 1582 1584 1586 1588 1590 1592 1594 1595 1597 1598 1599 1600 1602 1603 1604 1605 1606
1502 1510 1507 1505 1507 1505 1505 1505 1503 1500 1500 1498 1495 1500 1504 1497 1499 1505 1504 1503 1504 1507 1511 1513 1516 1516 1519 1525 1521 1521 1527 1527 1529 1529 1527 1529 1527 1526 1526 1524 1524 1524 1523 1524 1525 1526 1528 1530 1533 1535 1536 1539 1541 1544 1547 1549 1551 1553 1554 1556 1559 1562 1565 1567 1570 1572 1574 1577 1579 1580 1582 1584 1586 1588 1590 1592 1594 1595 1597 1598 1599 1600 1602 1603 1604 1605
1504 1509 1507 1506 1507 1506 1507 1505 1503 1505 1504 1499 1500 1504 1500 1494 1495 1502 1505 1499 1498 1510 1512 1509 1521 1526 1523 1527 1523 1522 1527 1526 1528 1530 1528 1530 1529 1527 1527 1526 1526 1525 1524 1524 1524 1524 1526 1528 1530 1532 1534 1537 1539 1541 1543 1546 1548 1550 1552 1554 1557 1560 1562 1565 1567 1570 1572 1574 1576 1578 1580 1582 1584 1586 1588 1590 1592 1594 1595 1597 1598 1599 1600 1602 1603 1604
1503 1508 1508 1506 1508 1507 1507 1507 1504 1504 1503 1501 1504 1500 1496 1499 1501 1502 1510 1510 1510 1517 1511 1505 1520 1530 1528 1532 1529 1525 1529 1530 1529 1530 1529 1530 1530 1529 1529 1529 1528 1527 1525 1524 1523 1523 1524 1526 1528 1530 1532 1534 1536 1538 1540 1542 1545 1547 1550 1552 1554 1557 1559 1562 1565 1567 1570 1572 1574 1576 1578 1580 1582 1583 1586 1588 1590 1592 1593 1595 1596 1597 1599 1600 1601 1603
1501 1508 1510 1506 1508 1508 1506 1506 1505 1503 1502 1503 1501 1496 1498 1508 1510 1506 1511 1516 1517 1518 1515 1511 1518 1525 1526 1529 1533 1533 1533 1532 1531 1531 1531 1530 1530 1530 1530 1531 1530 1529 1527 1525 1524 1524 1524 1525 1527 1528 1531 1533 1534 1536 1538 1540 1542 1545 1547 1550 1552 1555 1557 1560 1563 1565 1567 1569 1572 1574 1576 1578 1580 1581 1583 1586 1587 1589 1591 1592 1594 1595 1597 1598 1599 1601
1502 1507 1512 1507 1506 1506 1505 1505 1507 1505 1502 1501 1501 1498 1499 1503 1504 1505 1502 1503 1507 1510 1517 1524 1525 1529 1530 1528 1535 1539 1536 1534 1533 1532 1532 1531 1532 1532 1532 1532 1532 1530 1528 1526 1525 1524 1523 1524 1525 1527 1529 1531 1533 1536 1538 1539 1541 1542 1545 1548 1550 1553 1555 1558 1560 1562 1564 1567 1569 1571 1573 1575 1577 1579 1581 1583 1585 1586 1588 1590 1592 1594 1595 1596 1598 1599
1502 1503 1509 1509 1505 1506 1510 1512 1513 1513 1507 1504 1503 1501 1503 1501 1500 1504 1499 1494 1498 1501 1509 1523 1530 1536 1535 1530 1536 1539 1536 1535 1535 1533 1533 1533 1533 1534 1535 1535 1533 1532 1530 1528 1526 1525 1523 1522 1523 1526 1528 1530 1532 1534 1536 1538 1540 1541 1544 1546 1548 1550 1553 1555 1557 1559 1561 1564 1566 1568 1571 1573 1575 1577 1579 1580 1582 1583 1586 1588 1589 1591 1593 1594 1596 1597
1506 1503 1505 1507 1506 1510 1518 1519 1519 1519 1514 1510 1506 1503 1506 1504 1502 1511 1510 1500 1497 1499 1499 1508 1529 1543 1537 1531 1536 1537 1535 1536 1535 1535 1535 1535 1536 1536 1537 1536 1535 1533 1530 1528 1527 1525 1524 1521 1521 1524 1526 1528 1531 1532 1534 1537 1538 1540 1542 1544 1546 1548 1550 1553 1555 1557 1559 1561 1564 1565 1568 1570 1572 1575 1576 1578 1580 1581 1583 1585 1586 1589 1590 1592 1593 1595
1511 1506 1506 1510 1513 1515 1521 1521 1520 1520 1518 1514 1511 1510 1509 1505 1504 1510 1513 1504 1499 1502 1498 1500 1527 1547 1538 1532 1537 1536 1536 1537 1537 1537 1536 1537 1538 1538 1538 1538 1536 1535 1532 1529 1527 1526 1525 1523 1521 1523 1524 1526 1528 1530 1533 1536 1537 1539 1541 1543 1545 1546 1548 1551 1553 1555 1556 1559 1561 1563 1566 1568 1570 1572 1574 1575 1577 1578 1580 1582 1584 1586 1587 1589 1591 1592
1513 1509 1512 1518 1519 1518 1519 1519 1519 1519 1517 1514 1514 1514 1512 1510 1509 1508 1509 1506 1500 1503 1504 1505 1528 1547 1539 1534 1538 1536 1537 1538 1537 1539 1538 1539 1540 1538 1540 1540 1537 1537 1534 1531 1529 1526 1525 1524 1523 1524 1525 1526 1526 1528 1531 1534 1536 1538 1540 1541 1543 1544 1547 1550 1552 1554 1554 1556 1559 1561 1563 1565 1567 1569 1571 1573 1574 1576 1578 1579 1581 1582 1584 1586 1588 1589
1516 1513 1514 1520 1523 1524 1523 1522 1521 1518 1516 1516 1517 1518 1516 1514 1514 1512 1510 1509 1506 1508 1508 1506 1523 1542 1538 1535 1538 1536 1537 1539 1538 1540 1541 1540 1541 1540 1541 1541 1539 1539 1536 1533 1531 1528 1526 1525 1525 1526 1527 1527 1527 1527 1529 1532 1534 1537 1539 1540 1542 1543 1545 1547 1550 1552 1552 1553 1556 1558 1560 1562 1565 1567 1568 1570 1572 1573 1576 1577 1578 1580 1581 1583 1585 1587
1519 1517 1517 1519 1521 1525 1526 1525 1523 1518 1515 1518 1520 1521 1520 1517 1516 1515 1511 1511 1513 1516 1514 1512 1525 1539 1538 1536 1539 1539 1539 1540 1541 1542 1542 1542 1543 1542 1542 1542 1541 1540 1538 1536 1533 1531 1529 1529 1528 1529 1529 1529 1530 1530 1530 1531 1532 1535 1537 1539 1541 1542 1544 1545 1546 1549 1550 1552 1553 1555 1557 1559 1562 1564 1565 1567 1569 1571 1573 1575 1576 1577 1578 1580 1582 1583
1521 1521 1523 1523 1521 1522 1527 1527 1524 1518 1517 1521 1524 1523 1522 1520 1518 1515 1512 1514 1514 1515 1521 1527 1531 1536 1537 1537 1540 1541 1541 1542 1542 1543 1544 1545 1544 1544 1544 1543 1542 1541 1540 1538 1535 1534 1533 1531 1531 1531 1531 1532 1532 1532 1532 1531 1531 1533 1534 1537 1539 1541 1543 1543 1544 1545 1547 1549 1551 1552 1554 1556 1559 1561 1563 1565 1567 1569 1571 1572 1574 1575 1576 1577 1579 1580
1521 1523 1525 1527 1526 1526 1527 1528 1525 1522 1523 1526 1526 1525 1525 1523 1521 1518 1518 1521 1519 1516 1527 1536 1532 1533 1538 1538 1539 1543 1542 1543 1544 1544 1545 1546 1546 1546 1545 1544 1543 1542 1541 1540 1537 1536 1534 1533 1533 1533 1532 1533 1533 1533 1532 1531 1532 1533 1533 1534 1537 1539 1541 1542 1543 1543 1544 1546 1548 1549 1551 1553 1555 1558 1559 1562 1563 1566 1568 1569 1571 1572 1573 1574 1576 1577
1521 1524 1526 1527 1529 1529 1528 1528 1527 1526 1528 1528 1527 1527 1527 1526 1525 1525 1525 1526 1524 1523 1531 1536 1534 1535 1539 1538 1539 1543 1543 1544 1546 1546 1546 1547 1547 1546 1546 1545 1544 1543 1542 1542 1540 1539 1537 1535 1535 1534 1533 1533 1533 1533 1532 1532 1532 1533 1532 1533 1534 1536 1539 1541 1541 1542 1543 1543 1545 1546 1548 1550 1552 1554 1556 1558 1560 1562 1564 1566 1568 1569 1570 1571 1573 1574
1524 1527 1529 1527 1529 1531 1531 1531 1530 1530 1530 1529 1528 1528 1529 1527 1526 1527 1527 1526 1527 1529 1531 1533 1536 1539 1540 1539 1540 1544 1546 1545 1546 1547 1547 1547 1547 1547 1546 1546 1545 1545 1544 1543 1542 1541 1540 1538 1536 1535 1534 1534 1533 1533 1533 1533 1533 1533 1532 1532 1533 1534 1536 1538 1540 1541 1542 1542 1542 1544 1546 1547 1549 1551 1553 1554 1556 1558 1560 1562 1564 1566 1567 1568 1570 1571
1527 1531 1531 1528 1529 1532 1532 1531 1531 1531 1531 1530 1529 1529 1528 1529 1529 1528 1528 1527 1528 1531 1531 1533 1538 1541 1541 1541 1541 1545 1546 1546 1546 1547 1547 1548 1548 1548 1547 1547 1547 1546 1546 1545 1544 1543 1541 1540 1538 1536 1535 1534 1534 1534 1534 1533 1533 1533 1533 1533 1534 1534 1534 1536 1538 1539 1540 1541 1541 1542 1543 1544 1546 1548 1550 1551 1553 1555 1557 1559 1561 1562 1563 1565 1566 1568
1527 1531 1532 1530 1529 1530 1532 1533 1531 1530 1531 1530 1530 1529 1528 1528 1528 1527 1528 1528 1528 1530 1533 1534 1535 1536 1539 1541 1542 1543 1544 1544 1546 1547 1547 1548 1549 1548 1548 1548 1548 1547 1547 1546 1545 1544 1543 1542 1540 1538 1536 1535 1534 1534 1534 1533 1533 1533 1533 1533 1533 1533 1533 1534 1535 1536 1538 1539 1540 1540 1540 1541 1543 1544 1546 1548 1549 1551 1553 1555 1557 1558 1560 1561 1562 1564
1528 1529 1530 1530 1528 1528 1531 1532 1530 1530 1532 1530 1526 1525 1526 1527 1527 1528 1529 1530 1529 1530 1531 1531 1530 1533 1538 1541 1542 1542 1542 1544 1546 1548 1548 1549 1549 1548 1548 1548 1548 1548 1548 1547 1546 1545 1544 1543 1542 1541 1539 1536 1535 1534 1534 1533 1532 1532 1531 1531 1531 1531 1531 1532 1533 1533 1535 1536 1538 1538 1538 1538 1540 1541 1542 1544 1546 1548 1550 1551 1553 1554 1556 1557 1559 1560
1531 1530 1528 1528 1528 1529 1531 1531 1531 1532 1532 1528 1524 1524 1527 1528 1529 1529 1530 1531 1532 1530 1529 1530 1532 1536 1539 1541 1542 1543 1544 1545 1547 1548 1549 1549 1549 1549 1548 1548 1548 1548 1547 1547 1546 1546 1544 1543 1543 1542 1540 1538 1537 1535 1534 1534 1533 1532 1531 1531 1531 1530 1530 1530 1530 1531 1532 1533 1535 1536 1536 1536 1537 1538 1539 1541 1542 1544 1546 1547 1549 1550 1552 1553 1555 1555
1533 1531 1530 1530 1528 1527 1529 1532 1536 1535 1530 1527 1527 1528 1530 1530 1530 1530 1531 1532 1533 1532 1532 1534 1535 1538 1541 1542 1543 1544 1545 1547 1547 1547 1548 1549 1550 1549 1548 1548 1547 1547 1547 1546 1546 1545 1544 1543 1542 1541 1540 1539 1538 1536 1535 1534 1533 1532 1532 1531 1531 1530 1530 1529 1528 1528 1529 1530 1532 1533 1534 1534 1534 1534 1536 1537 1538 1540 1541 1543 1544 1546 1548 1549 1550 1551
1533 1532 1531 1531 1529 1529 1530 1532 1536 1534 1528 1527 1529 1529 1531 1532 1532 1533 1533 1532 1532 1533 1534 1535 1536 1539 1542 1543 1544 1545 1546 1546 1545 1545 1547 1548 1549 1549 1548 1547 1547 1546 1546 1546 1545 1545 1544 1543 1542 1541 1539 1539 1538 1537 1536 1534 1533 1532 1531 1531 1531 1530 1529 1528 1527 1527 1527 1528 1529 1530 1531 1531 1531 1532 1532 1533 1534 1535 1536 1538 1540 1541 1543 1545 1546 1547
1534 1532 1532 1532 1531 1531 1529 1524 1524 1528 1529 1529 1529 1528 1529 1530 1530 1531 1531 1530 1531 1535 1536 1537 1538 1540 1542 1543 1544 1545 1545 1544 1543 1543 1545 1548 1549 1549 1548 1548 1547 1547 1546 1546 1545 1545 1544 1543 1542 1541 1540 1539 1538 1537 1536 1535 1533 1532 1531 1531 1530 1529 1529 1527 1526 1526 1525 1525 1526 1526 1527 1527 1528 1529 1529 1529 1530 1530 1531 1533 1534 1536 1538 1539 1541 1543
1535 1534 1533 1534 1532 1531 1529 1526 1526 1529 1529 1525 1524 1526 1529 1530 1531 1532 1532 1530 1533 1536 1538 1538 1540 1542 1543 1544 1545 1545 1545 1543 1540 1539 1543 1548 1548 1548 1548 1548 1547 1547 1546 1546 1545 1544 1544 1543 1542 1541 1541 1540 1538 1537 1536 1535 1533 1531 1530 1530 1529 1529 1528 1526 1525 1525 1524 1523 1523 1523 1523 1524 1524 1525 1526 1525 1525 1525 1526 1528 1529 1531 1533 1534 1536 1537
1536 1535 1534 1535 1532 1531 1532 1531 1529 1528 1526 1523 1525 1528 1531 1532 1532 1534 1534 1531 1532 1536 1538 1539 1540 1542 1543 1545 1546 1545 1545 1542 1536 1536 1543 1548 1546 1546 1547 1547 1547 1547 1546 1546 1545 1544 1543 1542 1541 1541 1541 1539 1538 1536 1535 1534 1533 1531 1530 1529 1528 1527 1526 1525 1524 1523 1523 1522 1521 1521 1520 1520 1519 1520 1521 1521 1522 1522 1523 1524 1525 1526 1527 1529 1530 1532
1536 1535 1535 1535 1532 1529 1532 1530 1524 1521 1523 1525 1527 1529 1532 1532 1533 1536 1536 1533 1533 1537 1539 1539 1540 1542 1544 1545 1546 1545 1544 1541 1537 1538 1543 1546 1545 1546 1546 1546 1547 1546 1545 1545 1545 1543 1542 1541 1540 1540 1539 1538 1537 1535 1535 1534 1533 1532 1530 1528 1527 1526 1525 1524 1523 1522 1521 1521 1520 1519 1518 1517 1516 1517 1517 1518 1518 1519 1520 1521 1523 1524 1524 1525 1526 1527
1534 1533 1532 1532 1529 1527 1530 1531 1524 1518 1520 1524 1527 1529 1532 1534 1536 1536 1534 1532 1534 1538 1539 1540 1541 1542 1543 1545 1545 1544 1544 1544 1543 1543 1544 1544 1545 1545 1545 1545 1545 1545 1545 1544 1543 1542 1541 1540 1540 1539 1538 1537 1536 1535 1534 1533 1531 1531 1529 1527 1526 1525 1523 1522 1521 1520 1520 1519 1518 1517 1516 1516 1516 1515 1516 1516 1516 1516 1518 1519 1521 1522 1523 1523 1524 1524
1534 1533 1532 1531 1528 1525 1525 1527 1526 1521 1519 1523 1527 1530 1532 1534 1534 1532 1531 1533 1536 1538 1539 1541 1541 1542 1543 1544 1544 1544 1545 1545 1546 1545 1544 1544 1544 1543 1543 1542 1542 1542 1543 1543 1542 1541 1540 1539 1538 1537 1537 1536 1536 1534 1533 1532 1530 1529 1528 1526 1525 1524 1522 1521 1519 1518 1518 1518 1517 1516 1515 1515 1514 1513 1513 1514 1515 1516 1517 1518 1519 1520 1520 1522 1523 1522
1529 1531 1530 1527 1526 1526 1527 1530 1532 1528 1522 1523 1527 1530 1532 1531 1529 1530 1532 1535 1536 1537 1539 1540 1540 1541 1543 1543 1543 1544 1544 1544 1545 1544 1544 1543 1542 1542 1541 1540 1540 1539 1539 1540 1540 1540 1539 1538 1536 1536 1536 1535 1534 1533 1532 1531 1530 1528 1526 1525 1524 1522 1521 1520 1518 1517 1516 1516 1516 1516 1514 1513 1512 1511 1511 1512 1513 1514 1515 1515 1516 1516 1517 1519 1521 1521
1525 1528 1527 1521 1521 1526 1528 1528 1528 1524 1522 1524 1526 1526 1527 1528 1528 1531 1533 1533 1535 1537 1538 1538 1539 1540 1541 1541 1542 1543 1542 1543 1543 1543 1543 1542 1541 1540 1540 1539 1538 1537 1536 1536 1537 1537 1537 1536 1535 1534 1534 1533 1533 1531 1530 1529 1529 1527 1525 1524 1522 1521 1520 1519 1517 1516 1515 1515 1514 1514 1513 1512 1511 1510 1509 1509 1509 1510 1511 1512 1513 1513 1513 1515 1517 1518
1524 1524 1525 1522 1520 1522 1521 1519 1520 1521 1523 1526 1526 1525 1526 1528 1529 1531 1532 1533 1534 1536 1536 1537 1538 1539 1539 1540 1540 1540 1540 1541 1541 1541 1541 1541 1540 1539 1538 1537 1536 1535 1534 1533 1533 1534 1534 1534 1533 1532 1531 1531 1531 1530 1528 1527 1527 1526 1524 1522 1521 1520 1518 1517 1516 1515 1513 1513 1513 1512 1512 1510 1509 1509 1509 1508 1507 1506 1507 1508 1510 1510 1510 1510 1511 1512
1523 1525 1527 1525 1522 1521 1520 1518 1520 1523 1523 1524 1526 1526 1527 1528 1529 1531 1532 1533 1534 1534 1535 1536 1537 1537 1538 1538 1538 1538 1538 1538 1538 1539 1538 1538 1538 1537 1536 1535 1534 1533 1532 1531 1530 1530 1530 1530 1530 1529 1528 1528 1528 1528 1527 1526 1525 1524 1523 1521 1520 1518 1517 1516 1515 1514 1512 1512 1511 1510 1510 1509 1509 1509 1509 1507 1506 1505 1504 1504 1504 1505 1507 1508 1508 1508
1523 1525 1526 1524 1523 1523 1521 1517 1518 1521 1522 1523 1525 1526 1527 1528 1529 1530 1531 1532 1533 1534 1534 1535 1535 1536 1536 1537 1536 1537 1536 1536 1536 1536 1535 1535 1535 1535 1534 1533 1532 1531 1530 1529 1528 1527 1527 1526 1526 1526 1526 1525 1525 1525 1525 1524 1523 1522 1521 1519 1518 1517 1515 1514 1513 1513 1512 1510 1509 1509 1508 1508 1508 1508 1507 1506 1505 1504 1503 1502 1501 1501 1503 1504 1505 1505
1519 1523 1523 1521 1521 1521 1518 1516 1518 1521 1521 1522 1523 1524 1525 1526 1527 1528 1529 1530 1531 1532 1533 1533 1534 1534 1535 1535 1535 1535 1535 1534 1534 1533 1532 1532 1532 1531 1531 1531 1530 1529 1528 1527 1526 1525 1524 1523 1523 1522 1522 1522 1522 1522 1521 1521 1521 1519 1518 1518 1516 1515 1513 1512 1511 1511 1510 1509 1508 1507 1506 1505 1505 1505 1504 1503 1502 1501 1501 1500 1498 1497 1497 1499 1500 1501
1518 1521 1520 1518 1518 1517 1515 1515 1518 1520 1520 1520 1521 1521 1522 1524 1525 1526 1527 1528 1529 1530 1531 1532 1532 1532 1533 1534 1534 1533 1533 1532 1532 1531 1530 1530 1529 1529 1528 1528 1528 1527 1526 1525 1523 1522 1521 1520 1520 1519 1518 1518 1518 1518 1518 1517 1518 1517 1516 1516 1514 1513 1511 1510 1509 1509 1508 1508 1506 1505 1504 1503 1502 1501 1501 1500 1499 1498 1498 1497 1496 1494 1493 1495 1497 1497
1520 1519 1517 1518 1518 1514 1510 1511 1514 1516 1515 1515 1517 1518 1520 1522 1523 1524 1525 1526 1527 1528 1529 1529 1530 1531 1531 1532 1532 1532 1531 1531 1530 1529 1528 1527 1526 1526 1525 1525 1524 1524 1523 1522 1521 1519 1518 1517 1516 1515 1515 1514 1514 1515 1514 1514 1514 1514 1514 1513 1512 1510 1509 1508 1507 1506 1506 1506 1504 1503 1501 1500 1499 1498 1497 1497 1496 1495 1494 1493 1493 1492 1491 1490 1492 1492
1518 1517 1516 1517 1516 1511 1509 1511 1513 1514 1513 1513 1515 1517 1519 1520 1521 1522 1523 1524 1525 1526 1527 1528 1528 1529 1529 1530 1530 1530 1529 1529 1528 1527 1526 1525 1524 1523 1523 1522 1521 1521 1520 1519 1518 1516 1515 1514 1513 1512 1511 1510 1511 1511 1511 1511 1511 1511 1511 1510 1509 1508 1507 1506 1504 1503 1503 1503 1502 1501 1499 1498 1496 1495 1494 1494 1493 1491 1490 1489 1489 1488 1488 1487 1487 1487